Location: Niedergestelen
(46.3129°N, 7.7822°E)
Time: 15:47:57
(UTC+00:00)

Meteor 1-11 Rocket - Pass Details

Date: 01 December 2020
Orbit: 831 x 915 km, 81.2° (Epoch: 27 January)

Event Time Altitude Azimuth Distance (km) Brightness Sun altitude
Rises 17:33:04 0° 353° (N) 3,473 6.8 -18.2°
Reaches altitude 10° 17:35:37 10° 0° (N) 2,544 6.1 -18.6°
Maximum altitude 17:41:09 45° 73° (ENE) 1,205 4.0 -19.5°
Drops below altitude 10° 17:46:46 10° 145° (SE) 2,577 6.0 -20.5°
Sets 17:49:21 0° 151° (SSE) 3,523 6.7 -20.9°
